Location: Newark
(42.8481°N, 0.4872°E)
Time: 08:53:27
(UTC+00:00)

A-11 Canister half - Pass Details

Date: 29 October 2020
Orbit: 1516 x 1684 km, 47.2° (Epoch: 04 December)

Event Time Altitude Azimuth Distance (km) Brightness Sun altitude
Rises 22:15:30 0° 269° (W) 4,926 11.9 -55.6°
Reaches altitude 10° 22:18:44 10° 272° (W) 3,927 11.3 -55.9°
Enters shadow 22:20:26 17° 274° (W) 3,415 11.0 -56.1°
